Погода в Чохе

Россия / Республика Дагестан     42°19′15″N   47°01′54″E
темп.,
°C
ветер,
м/с
пор.,
м/с
влажн.,
%
обл.,
%
осадки,
мм/ч
давл.,
гПа
погр.,
м
10 мая, пн
пн1000:00+8св2289100 2.4 1010196
03:00+1ссз5699100 3.4 1015297
06:00−2сз4498100 8.8 1019336
09:00−2с339996 12.0 1021411
12:000св3297100 0.6 1020529
15:00+1всв329595 0.9 1020489
18:000св229695 0.2 1020319
21:00−1вюв119188 0.3 1022151
11 мая, вт
вт1100:00−4ю228851 0.1 102476
03:00−4ю22867 0.1 102334
06:00−1в11823 0.0 101985
09:00+4ссв22828 0.0 1015415
12:00+10св337016 0.0 1012802
15:00+10ссв327025 0.0 1011556
18:00+7св218938 0.0 1014229
21:00+5зюз018316 0.0 101521
12 мая, ср
ср1200:00+4з11790 0.0 101410
03:00+5юз22750 0.0 101410
06:00+8юз22670 0.0 101338
09:00+15с13385 0.0 1011874
12:00+18ссз15315 0.0 10111925
15:00+17с34400 0.1 10121392
18:00+13с22720 0.1 1014107
21:00+8юз22530 0.1 101721
13 мая, чт
чт1300:00+8юз33495 0.0 101728
03:00+8ююз435272 0.0 101634
06:00+11ююз33580 0.0 101649
09:00+18ссв13330 0.0 10141696
12:00+20ссв34305 0.0 10132605
15:00+20ссв434121 0.0 10131750
18:00+16ссв22661 0.6 101552
21:00+11ююз435964 0.9 101831
14 мая, пт
пт1400:00+10ююз43495 0.0 101835
03:00+9ююз44425 0.0 101934
06:00+11ююз44502 0.0 101847
09:00+19ссв22280 0.0 10161232
12:00+21св43284 0.0 10152117
15:00+20всв423572 0.0 10152425
18:00+18в225811 0.1 101637
21:00+12юз43655 0.4 101840